MXL214 KHSV-KDHN

Flight info

Callsign MXL214
Flight time 0h 46m
Altitude 29000
Route VUZ J41 MGM CLIOS
Aircraft CRJ2/M-SDFGIRW/S

Departure

Time 2026-04-24 20:11
Airport Huntsville International Airport (KHSV)

Arrival

Time 2026-04-24 20:58
Airport Dothan Regional Airport (KDHN)
Time Latitude Longitude Altitude Speed Heading
2026-04-24 19:55 34.64849 -86.76815 635 ft 0 kts 91°
2026-04-24 19:57 34.64849 -86.76814 635 ft 0 kts 91°
2026-04-24 19:59 34.64849 -86.76812 635 ft 2 kts 97°
2026-04-24 19:59 34.64833 -86.76804 635 ft 5 kts 189°
2026-04-24 19:59 34.64786 -86.76810 635 ft 9 kts 168°
2026-04-24 19:59 34.64765 -86.76759 635 ft 7 kts 93°
2026-04-24 20:00 34.64756 -86.76690 635 ft 9 kts 137°
2026-04-24 20:00 34.64685 -86.76680 635 ft 12 kts 181°
2026-04-24 20:00 34.64592 -86.76682 635 ft 13 kts 181°
2026-04-24 20:00 34.64509 -86.76685 635 ft 11 kts 182°
2026-04-24 20:01 34.64447 -86.76688 635 ft 9 kts 181°
2026-04-24 20:01 34.64373 -86.76690 635 ft 13 kts 181°
2026-04-24 20:01 34.64288 -86.76692 635 ft 10 kts 181°
2026-04-24 20:01 34.64207 -86.76694 635 ft 14 kts 181°
2026-04-24 20:02 34.64142 -86.76695 635 ft 12 kts 181°
2026-04-24 20:02 34.64038 -86.76698 635 ft 11 kts 181°
2026-04-24 20:02 34.63946 -86.76700 635 ft 15 kts 181°
2026-04-24 20:02 34.63828 -86.76703 635 ft 19 kts 181°
2026-04-24 20:03 34.63739 -86.76705 635 ft 13 kts 180°
2026-04-24 20:03 34.63650 -86.76705 635 ft 10 kts 180°
2026-04-24 20:03 34.63568 -86.76706 635 ft 14 kts 180°
2026-04-24 20:03 34.63491 -86.76707 635 ft 12 kts 181°
2026-04-24 20:04 34.63410 -86.76710 635 ft 12 kts 182°
2026-04-24 20:04 34.63310 -86.76715 635 ft 13 kts 182°
2026-04-24 20:04 34.63237 -86.76717 635 ft 0 kts 181°
2026-04-24 20:05 34.63236 -86.76717 635 ft 0 kts 181°
2026-04-24 20:06 34.63214 -86.76718 635 ft 5 kts 181°
2026-04-24 20:06 34.63201 -86.76718 635 ft 0 kts 181°
2026-04-24 20:06 34.63200 -86.76718 635 ft 0 kts 181°
2026-04-24 20:07 34.63172 -86.76719 635 ft 6 kts 181°
2026-04-24 20:07 34.63114 -86.76721 635 ft 10 kts 181°
2026-04-24 20:07 34.63028 -86.76723 635 ft 14 kts 181°
2026-04-24 20:08 34.62916 -86.76726 635 ft 18 kts 181°
2026-04-24 20:08 34.62813 -86.76729 635 ft 15 kts 181°
2026-04-24 20:08 34.62731 -86.76731 635 ft 11 kts 181°
2026-04-24 20:08 34.62649 -86.76733 635 ft 10 kts 180°
2026-04-24 20:09 34.62585 -86.76718 635 ft 10 kts 127°
2026-04-24 20:09 34.62577 -86.76683 635 ft 0 kts 92°
2026-04-24 20:09 34.62577 -86.76682 635 ft 0 kts 92°
2026-04-24 20:10 34.62577 -86.76680 635 ft 2 kts 92°
2026-04-24 20:10 34.62578 -86.76637 635 ft 8 kts 86°
2026-04-24 20:10 34.62633 -86.76600 635 ft 13 kts 358°
2026-04-24 20:10 34.62900 -86.76596 635 ft 71 kts 358°
2026-04-24 20:11 34.63671 -86.76580 635 ft 153 kts
2026-04-24 20:11 34.64492 -86.76558 745 ft 198 kts
2026-04-24 20:11 34.65937 -86.76469 1604 ft 215 kts
2026-04-24 20:11 34.67451 -86.76315 2571 ft 216 kts
2026-04-24 20:12 34.69513 -86.76206 4034 ft 218 kts 352°
2026-04-24 20:12 34.70904 -86.76772 5211 ft 218 kts 322°
2026-04-24 20:12 34.71660 -86.77662 5898 ft 231 kts 301°
2026-04-24 20:12 34.72159 -86.79520 7007 ft 235 kts 265°
2026-04-24 20:13 34.71604 -86.81322 8031 ft 232 kts 226°
2026-04-24 20:13 34.70310 -86.82616 8627 ft 245 kts 209°
2026-04-24 20:13 34.68791 -86.83418 8930 ft 240 kts 197°
2026-04-24 20:13 34.67214 -86.84009 9172 ft 235 kts 197°
2026-04-24 20:14 34.65616 -86.84233 9344 ft 230 kts 171°
2026-04-24 20:14 34.64173 -86.83437 9511 ft 229 kts 150°
2026-04-24 20:14 34.62881 -86.82299 9797 ft 227 kts 146°
2026-04-24 20:14 34.61631 -86.81101 10173 ft 232 kts 145°
2026-04-24 20:15 34.60311 -86.79945 10557 ft 235 kts 153°
2026-04-24 20:15 34.58806 -86.79157 10941 ft 237 kts 166°
2026-04-24 20:15 34.57164 -86.78792 11325 ft 243 kts 177°
2026-04-24 20:15 34.55485 -86.78732 11703 ft 246 kts 183°
2026-04-24 20:16 34.53756 -86.78841 12085 ft 249 kts 186°
2026-04-24 20:16 34.52018 -86.79031 12461 ft 252 kts 188°
2026-04-24 20:16 34.50260 -86.79253 12838 ft 255 kts 188°
2026-04-24 20:16 34.48489 -86.79485 13215 ft 258 kts 188°
2026-04-24 20:17 34.46699 -86.79720 13591 ft 260 kts 188°
2026-04-24 20:17 34.43073 -86.80195 14345 ft 264 kts 188°
2026-04-24 20:17 34.41241 -86.80433 14747 ft 265 kts 188°
2026-04-24 20:18 34.40025 -86.80591 15044 ft 266 kts 188°
2026-04-24 20:18 34.37570 -86.80909 15642 ft 269 kts 188°
2026-04-24 20:18 34.35704 -86.81149 16093 ft 271 kts 188°
2026-04-24 20:18 34.33820 -86.81392 16545 ft 273 kts 188°
2026-04-24 20:19 34.31922 -86.81637 16996 ft 276 kts 189°
2026-04-24 20:19 34.30005 -86.81886 17448 ft 278 kts 189°
2026-04-24 20:19 34.28073 -86.82138 17900 ft 280 kts 189°
2026-04-24 20:19 34.26125 -86.82391 18353 ft 282 kts 189°
2026-04-24 20:20 34.24159 -86.82646 18804 ft 285 kts 189°
2026-04-24 20:20 34.22179 -86.82902 19256 ft 287 kts 189°
2026-04-24 20:20 34.20183 -86.83160 19708 ft 290 kts 189°
2026-04-24 20:20 34.18184 -86.83418 20155 ft 294 kts 189°
2026-04-24 20:21 34.16133 -86.83684 20609 ft 300 kts 189°
2026-04-24 20:21 34.14037 -86.83955 21063 ft 305 kts 189°
2026-04-24 20:21 34.11914 -86.84229 21515 ft 309 kts 189°
2026-04-24 20:21 34.09759 -86.84508 21968 ft 313 kts 189°
2026-04-24 20:22 34.07577 -86.84790 22421 ft 316 kts 189°
2026-04-24 20:22 34.05375 -86.85074 22874 ft 319 kts 190°
2026-04-24 20:22 34.03181 -86.85356 23321 ft 322 kts 190°
2026-04-24 20:22 34.00940 -86.85644 23773 ft 325 kts 190°
2026-04-24 20:23 33.98676 -86.85936 24225 ft 329 kts 189°
2026-04-24 20:23 33.96382 -86.86232 24677 ft 334 kts 189°
2026-04-24 20:23 33.94055 -86.86530 25130 ft 338 kts 189°
2026-04-24 20:23 33.91707 -86.86830 25582 ft 341 kts 189°
2026-04-24 20:24 33.89339 -86.87133 26034 ft 344 kts 189°
2026-04-24 20:24 33.86949 -86.87439 26486 ft 346 kts 189°
2026-04-24 20:24 33.84542 -86.87747 26938 ft 348 kts 189°
2026-04-24 20:24 33.82154 -86.88052 27384 ft 350 kts 189°
2026-04-24 20:25 33.79723 -86.88362 27836 ft 352 kts 189°
2026-04-24 20:25 33.77282 -86.88674 28287 ft 353 kts 189°
2026-04-24 20:25 33.74832 -86.88987 28738 ft 355 kts 189°
2026-04-24 20:25 33.72373 -86.89301 29189 ft 356 kts 189°
2026-04-24 20:26 33.69899 -86.89614 29641 ft 358 kts 189°
2026-04-24 20:26 33.67379 -86.89667 29728 ft 373 kts 180°
2026-04-24 20:26 33.64772 -86.89069 29516 ft 388 kts 165°
2026-04-24 20:26 33.62251 -86.87919 29404 ft 385 kts 163°
2026-04-24 20:27 33.57234 -86.85863 29333 ft 381 kts 165°
2026-04-24 20:27 33.52187 -86.83881 29336 ft 382 kts 165°
2026-04-24 20:28 33.47144 -86.81872 29336 ft 382 kts 165°
2026-04-24 20:28 33.42090 -86.79838 29334 ft 382 kts 165°
2026-04-24 20:29 33.37077 -86.77811 29332 ft 383 kts 165°
2026-04-24 20:29 33.32022 -86.75767 29332 ft 383 kts 165°
2026-04-24 20:30 33.26971 -86.73727 29330 ft 383 kts 165°
2026-04-24 20:30 33.21921 -86.71689 29329 ft 383 kts 165°
2026-04-24 20:31 33.16904 -86.69667 29329 ft 383 kts 165°
2026-04-24 20:31 33.11857 -86.67636 29329 ft 383 kts 165°
2026-04-24 20:32 33.06805 -86.65605 29330 ft 383 kts 165°
2026-04-24 20:32 33.01749 -86.63574 29330 ft 383 kts 165°
2026-04-24 20:33 32.96698 -86.61548 29330 ft 383 kts 164°
2026-04-24 20:33 32.91634 -86.59519 29329 ft 383 kts 164°
2026-04-24 20:34 32.86592 -86.57501 29328 ft 383 kts 164°
2026-04-24 20:34 32.81526 -86.55477 29327 ft 384 kts 164°
2026-04-24 20:35 32.76481 -86.53464 29189 ft 387 kts 164°
2026-04-24 20:35 32.73913 -86.52443 28731 ft 390 kts 164°
2026-04-24 20:35 32.71348 -86.51420 28323 ft 386 kts 164°
2026-04-24 20:36 32.68811 -86.50408 27940 ft 383 kts 164°
2026-04-24 20:36 32.66293 -86.49404 27564 ft 381 kts 164°
2026-04-24 20:36 32.63789 -86.48408 27188 ft 379 kts 164°
2026-04-24 20:36 32.61298 -86.47417 26812 ft 377 kts 164°
2026-04-24 20:37 32.58816 -86.46431 26436 ft 375 kts 164°
2026-04-24 20:37 32.56354 -86.45454 26061 ft 373 kts 164°
2026-04-24 20:37 32.53897 -86.44478 25685 ft 371 kts 164°
2026-04-24 20:37 32.51452 -86.43509 25308 ft 369 kts 163°
2026-04-24 20:38 32.49025 -86.42547 24933 ft 366 kts 163°
2026-04-24 20:38 32.46616 -86.41592 24557 ft 364 kts 163°
2026-04-24 20:38 32.44245 -86.40654 24186 ft 362 kts 163°
2026-04-24 20:38 32.41828 -86.39698 23805 ft 360 kts 163°
2026-04-24 20:39 32.39494 -86.38774 23435 ft 358 kts 163°
2026-04-24 20:39 32.37136 -86.37842 23059 ft 356 kts 163°
2026-04-24 20:39 32.34790 -86.36915 22683 ft 354 kts 163°
2026-04-24 20:39 32.32462 -86.35996 22307 ft 351 kts 163°
2026-04-24 20:40 32.30154 -86.35085 21932 ft 349 kts 163°
2026-04-24 20:40 32.27860 -86.34181 21557 ft 346 kts 163°
2026-04-24 20:40 32.25579 -86.33281 21164 ft 344 kts 163°
2026-04-24 20:40 32.23357 -86.32221 20742 ft 343 kts 154°
2026-04-24 20:41 32.21361 -86.30708 20318 ft 341 kts 143°
2026-04-24 20:41 32.19644 -86.28792 19895 ft 337 kts 135°
2026-04-24 20:41 32.18029 -86.26805 19469 ft 333 kts 135°
2026-04-24 20:41 32.16477 -86.24882 19052 ft 329 kts 135°
2026-04-24 20:42 32.14880 -86.22901 18618 ft 325 kts 135°
2026-04-24 20:42 32.13330 -86.20982 18192 ft 320 kts 135°
2026-04-24 20:42 32.11819 -86.19114 17759 ft 305 kts 135°
2026-04-24 20:42 32.10335 -86.17282 17338 ft 311 kts 135°
2026-04-24 20:43 32.08839 -86.15440 16915 ft 309 kts 135°
2026-04-24 20:43 32.07395 -86.13662 16481 ft 292 kts 135°
2026-04-24 20:43 32.06009 -86.11954 16051 ft 290 kts 135°
2026-04-24 20:43 32.04556 -86.10173 15638 ft 304 kts 135°
2026-04-24 20:44 32.03101 -86.08387 15214 ft 299 kts 135°
2026-04-24 20:44 32.01674 -86.06634 14788 ft 294 kts 135°
2026-04-24 20:44 32.00272 -86.04913 14362 ft 289 kts 135°
2026-04-24 20:44 31.98889 -86.03217 13936 ft 285 kts 135°
2026-04-24 20:45 31.97524 -86.01543 13509 ft 281 kts 135°
2026-04-24 20:45 31.96175 -85.99890 13083 ft 278 kts 135°
2026-04-24 20:45 31.94841 -85.98255 12657 ft 275 kts 135°
2026-04-24 20:45 31.93520 -85.96639 12232 ft 272 kts 135°
2026-04-24 20:46 31.92214 -85.95041 11807 ft 270 kts 135°
2026-04-24 20:46 31.90933 -85.93475 11386 ft 267 kts 135°
2026-04-24 20:46 31.89657 -85.91914 11126 ft 260 kts 135°
2026-04-24 20:46 31.88405 -85.90384 11032 ft 258 kts 135°
2026-04-24 20:47 31.87163 -85.88866 11007 ft 257 kts 135°
2026-04-24 20:47 31.85927 -85.87357 11001 ft 255 kts 135°
2026-04-24 20:47 31.84697 -85.85856 10999 ft 252 kts 135°
2026-04-24 20:47 31.83484 -85.84376 10999 ft 251 kts 135°
2026-04-24 20:48 31.82277 -85.82904 10998 ft 249 kts 135°
2026-04-24 20:48 31.81076 -85.81441 10998 ft 248 kts 135°
2026-04-24 20:48 31.79878 -85.79980 10998 ft 248 kts 135°
2026-04-24 20:48 31.78684 -85.78527 10997 ft 247 kts 135°
2026-04-24 20:49 31.77488 -85.77071 10997 ft 247 kts 135°
2026-04-24 20:49 31.76293 -85.75615 10996 ft 247 kts 135°
2026-04-24 20:49 31.75097 -85.74162 10996 ft 247 kts 135°
2026-04-24 20:49 31.73918 -85.72728 10995 ft 247 kts 135°
2026-04-24 20:50 31.72724 -85.71278 10993 ft 247 kts 135°
2026-04-24 20:50 31.71517 -85.69812 10992 ft 247 kts 135°
2026-04-24 20:50 31.70337 -85.68381 10991 ft 247 kts 136°
2026-04-24 20:50 31.69036 -85.67084 10990 ft 246 kts 146°
2026-04-24 20:51 31.67548 -85.66098 10993 ft 245 kts 155°
2026-04-24 20:51 31.66017 -85.65213 10738 ft 251 kts 154°
2026-04-24 20:51 31.64470 -85.64293 10277 ft 238 kts 153°
2026-04-24 20:51 31.63017 -85.63424 9829 ft 232 kts 153°
2026-04-24 20:52 31.61581 -85.62570 9385 ft 230 kts 153°
2026-04-24 20:52 31.60156 -85.61725 8946 ft 228 kts 153°
2026-04-24 20:52 31.58743 -85.60885 8514 ft 227 kts 153°
2026-04-24 20:52 31.57324 -85.60071 8077 ft 226 kts 154°
2026-04-24 20:53 31.55903 -85.59301 7652 ft 224 kts 155°
2026-04-24 20:53 31.54470 -85.58592 7225 ft 223 kts 158°
2026-04-24 20:53 31.53027 -85.57966 6803 ft 222 kts 160°
2026-04-24 20:53 31.51568 -85.57389 6379 ft 221 kts 161°
2026-04-24 20:54 31.50110 -85.56834 5962 ft 219 kts 161°
2026-04-24 20:54 31.48662 -85.56311 5561 ft 217 kts 162°
2026-04-24 20:54 31.47312 -85.55569 5133 ft 215 kts 144°
2026-04-24 20:54 31.46173 -85.54446 4722 ft 213 kts 139°
2026-04-24 20:55 31.45039 -85.53348 4309 ft 212 kts 143°
2026-04-24 20:55 31.43831 -85.52361 3907 ft 210 kts 147°
2026-04-24 20:55 31.42580 -85.51482 3494 ft 209 kts 150°
2026-04-24 20:55 31.41321 -85.50679 3084 ft 208 kts 152°
2026-04-24 20:56 31.40050 -85.49909 2705 ft 203 kts 152°
2026-04-24 20:56 31.38832 -85.49189 2433 ft 192 kts 153°
2026-04-24 20:56 31.37634 -85.48485 2141 ft 193 kts 153°
2026-04-24 20:56 31.36426 -85.47778 1844 ft 195 kts 153°
2026-04-24 20:57 31.35210 -85.47057 1540 ft 197 kts 152°
2026-04-24 20:57 31.33976 -85.46610 1059 ft 169 kts 167°
2026-04-24 20:57 31.32971 -85.46147 521 ft 146 kts 135°
2026-04-24 20:57 31.32380 -85.45348 407 ft 105 kts 142°
2026-04-24 20:58 31.32131 -85.45088 407 ft 37 kts 131°
2026-04-24 20:58 31.32135 -85.45014 407 ft 1 kts 87°
2026-04-24 20:58 31.32137 -85.44962 407 ft 9 kts 87°
2026-04-24 20:58 31.32162 -85.44917 407 ft 12 kts
2026-04-24 20:59 31.32234 -85.44928 407 ft 12 kts 349°
2026-04-24 20:59 31.32277 -85.44957 407 ft 12 kts 303°
2026-04-24 20:59 31.32317 -85.45019 407 ft 8 kts 314°
2026-04-24 20:59 31.32371 -85.45079 407 ft 11 kts 319°
2026-04-24 21:00 31.32434 -85.45142 407 ft 13 kts 318°
2026-04-24 21:00 31.32427 -85.45223 407 ft 11 kts 228°
2026-04-24 21:00 31.32415 -85.45236 407 ft 0 kts 217°
2026-04-24 21:00 31.32409 -85.45243 407 ft 0 kts 233°
2026-04-24 21:01 31.32409 -85.45266 407 ft 6 kts 309°
2026-04-24 21:01 31.32447 -85.45309 407 ft 11 kts 315°